Lid_Strength_Index
4 6 8 7 6 7 7 8 8 7 6 6 7 7 6 5 5 5 4 4 4 3 2 2 1 1 1 0 -1 -0 0 0 0 0 1 1 1 1 0 0 -0 -0 -0 -1
6 8 6 5 6 7 7 8 8 7 6 6 7 8 7 6 5 4 4 4 4 3 3 2 2 1 1 1 0 -1 0 0 0 0 0 0 1 0 0 0 -0 -0 -0 -0
7 6 5 6 7 7 7 8 8 8 7 6 8 9 7 5 5 4 4 4 3 3 3 3 2 2 1 1 1 1 -0 -1 -0 -0 0 0 0 1 1 2 1 0 -0 -0
7 5 6 7 7 7 9 6 8 8 9 12 8 13 8 7 6 5 5 4 4 3 3 2 3 2 2 1 0 0 0 -0 -1 -1 0 1 2 2 1 1 1 0 -0 -0
7 7 7 8 8 7 8 7 8 8 9 9 9 11 9 7 8 6 5 4 4 3 3 3 2 2 1 1 1 0 -0 -1 -2 -2 -1 1 1 1 1 1 1 1 0 -0
6 4 6 7 6 7 6 7 8 8 9 13 10 10 10 9 7 6 5 4 4 3 3 2 2 1 1 1 1 1 1 -1 -1 -1 -1 1 1 1 2 1 2 1 1 0
7 7 5 6 7 6 7 8 14 14 15 14 9 11 10 7 6 6 5 5 4 3 3 3 3 2 1 1 1 1 2 -0 -1 -1 -0 0 1 1 1 2 2 2 1 1
10 11 7 6 7 8 8 8 13 18 17 14 9 12 10 6 5 5 4 5 4 4 4 4 3 3 3 2 2 1 0 0 -0 -0 -0 -0 0 1 1 1 1 1 1 1
11 10 6 6 6 6 8 10 7 12 11 14 12 9 7 6 6 6 6 5 5 4 4 4 3 3 3 3 2 1 1 1 0 0 0 0 0 1 1 1 1 1 1 1
8 12 7 6 5 6 7 6 12 12 18 18 13 12 11 8 8 7 7 6 5 4 4 4 3 3 3 2 1 1 1 1 0 0 0 0 1 0 0 0 1 1 1 0
7 9 9 7 8 9 8 9 9 9 11 18 18 13 7 8 7 7 6 5 5 5 4 4 3 3 2 2 2 1 1 1 1 1 1 1 1 0 0 1 1 1 0 1
6 8 12 10 6 6 7 8 8 15 16 13 15 15 6 6 6 6 6 5 5 5 4 4 3 3 3 3 2 1 1 1 1 1 1 1 1 1 1 1 1 0 1 0
7 10 15 12 8 7 8 8 8 9 10 14 17 14 7 6 6 5 6 5 5 5 4 3 3 3 2 2 2 1 1 1 1 1 1 1 1 1 1 1 1 1 1 1
5 8 11 15 12 9 10 9 8 9 15 14 13 13 9 7 7 6 5 5 5 4 4 3 3 3 2 2 2 2 2 1 1 1 1 1 1 1 2 1 1 1 1 1
6 11 10 9 8 8 9 9 9 10 10 14 11 10 8 7 7 6 5 5 5 5 4 4 4 3 3 2 2 2 1 1 1 2 2 2 2 2 2 2 2 1 1 1
6 11 9 11 9 9 9 8 9 9 10 10 10 10 7 6 5 6 6 5 5 5 4 4 3 3 3 3 2 2 2 2 2 3 3 3 4 4 3 3 3 2 1 1
8 9 11 14 10 10 13 11 10 9 8 9 13 9 7 8 7 7 6 5 5 5 4 4 4 3 3 3 3 3 3 3 4 4 4 4 5 5 4 4 3 2 2 1
9 9 10 13 11 17 10 8 8 10 8 8 9 8 7 7 6 5 4 5 5 5 4 4 5 5 5 4 5 5 4 4 4 4 4 5 5 5 5 4 4 2 2 2
6 8 12 14 14 11 9 10 11 12 11 8 8 7 7 6 6 6 4 4 5 6 5 6 5 5 6 6 6 6 6 6 6 5 6 6 6 6 6 5 4 3 2 2
6 7 11 13 16 17 11 8 6 6 14 7 7 8 8 7 12 8 5 5 6 6 6 7 7 6 7 7 7 7 8 8 8 7 7 6 7 6 6 6 4 3 2 2
10 9 12 12 14 11 8 7 5 14 13 7 6 7 7 9 7 5 6 7 7 7 7 7 7 8 8 7 8 9 9 10 9 8 7 7 7 7 6 6 3 2 4 5
11 13 13 12 14 15 6 7 13 8 6 6 6 6 6 6 5 6 7 8 8 9 8 8 8 9 8 8 8 9 10 9 9 8 8 8 8 6 5 4 3 4 5 6
12 9 11 10 11 6 5 6 5 5 6 6 6 5 5 6 7 9 9 9 10 9 9 9 9 9 9 9 8 9 9 9 9 9 9 8 7 6 4 4 3 5 6 6
7 5 9 9 7 7 6 4 4 4 5 4 4 4 4 8 9 10 10 10 10 10 10 9 10 10 10 9 9 9 8 8 8 9 8 7 6 5 3 2 2 5 6 6
7 7 9 8 6 6 5 5 4 4 4 4 4 4 6 9 10 10 11 10 10 10 10 10 10 10 10 9 9 8 8 7 8 7 7 6 4 4 7 7 5 5 6 6
6 8 10 11 6 7 6 5 4 4 4 4 4 6 8 9 10 10 10 10 10 10 9 10 9 9 9 8 8 7 6 7 7 7 6 4 4 6 6 7 8 10 10 10